Regional Weather Roundup
Issued by NWS

Home | Current Version | Previous Version | Text Only | Print | Product List | Glossary On
Versions: 1 2 3 4 5 6 7 8 9 10 11 12 13 14 15 16 17 18 19 20 21 22 23 24 25 26 27 28 29 30 31 32 33 34 35 36 37 38 39 40 41 42 43 44 45 46 47 48 49 50
000
ASUS46 KSEW 262110
RWRWA

WASHINGTON REGIONAL WEATHER ROUNDUP
NATIONAL WEATHER SERVICE SEATTLE WA
200 PM PDT SUN MAR 26 2017

NOTE:"FAIR" INDICATES FEW OR NO CLOUDS BELOW 12,000 FEET WITH NO
SIGNIFICANT WEATHER AND/OR OBSTRUCTIONS TO VISIBILITY.

WAZ507-509-555>559-262200-
SEATTLE, TACOMA, EVERETT, AND VICINITY

CITY           SKY/WX    TMP DP  RH WIND       PRES   REMARKS
EVERETT        CLOUDY    49  40  71 SE12      29.76S
BOEING FIELD   LGT RAIN  49  47  93 W5        29.78R FOG
RENTON         LGT RAIN  47  45  93 NW6       29.77R
SEATAC AIRPORT LGT RAIN  46  45  96 NW6       29.77S
JBLM-MCCHORD   LGT RAIN  46  46 100 N3        29.77R
PUYALLUP       LGT RAIN  46  46 100 CALM      29.76S
BREMERTON      CLOUDY    43  43 100 W5        29.81R
JBLM-FT LEWIS  RAIN      46  46 100 NW5       29.76S FOG
TACOMA NARROWS LGT RAIN  44  44 100 NW6       29.77F FOG
$$

WAZ001-503-506-510-514-515-262200-
NORTH INTERIOR

CITY           SKY/WX    TMP DP  RH WIND       PRES   REMARKS
BELLINGHAM     CLOUDY    49  42  77 NE10      29.74F
FRIDAY HARBOR  CLOUDY    49  41  74 E14G22    29.74S
EASTSOUND      CLOUDY    48  39  71 SE3       29.73S
PORT ANGELES   CLOUDY    46  41  82 VRB3      29.69S
EDIZ HOOK      CLOUDY    46  39  79 W6        29.69S
PORT TOWNSEND  PTSUNNY   46  39  76 SE13      29.74F
NAS WHIDBEY    CLOUDY    50  40  68 SE16      29.78F
ARLINGTON      CLOUDY    52  37  58 SE7       29.77F
BURLINGTON     CLOUDY    50  41  71 E6G12     29.75F
$$

WAZ020-022-039-040-504-511-512-262200-
SOUTHWEST INTERIOR

CITY           SKY/WX    TMP DP  RH WIND       PRES   REMARKS
SHELTON        LGT RAIN  45  42  89 N3        29.75F FOG
OLYMPIA        LGT RAIN  45  44  97 CALM      29.76F FOG
CHEHALIS       PTSUNNY   46  45  93 S13       29.76S
KELSO          LGT RAIN  47  43  86 SE9       29.78S
VANCOUVER      LGT RAIN  47  46  97 SE9       29.80S FOG
SCAPPOOSE, OR  LGT RAIN  46  45  96 S7        29.79F
PORTLAND, OR   LGT RAIN  46  46 100 SE14      29.80S FOG
$$

WAZ021-516-517-262200-
WASHINGTON COAST

CITY           SKY/WX    TMP DP  RH WIND       PRES   REMARKS
FORKS          LGT RAIN  48  41  76 SE14G24   29.66S
HOQUIAM        LGT RAIN  45  44  97 NE10      29.71S FOG
ASTORIA, OR    LGT RAIN  49  44  83 S17G24    29.71S
$$

WAZ019-023-024-040-567>569-262200-
CASCADE MOUNTAINS AND COLUMBIA GORGE

CITY           SKY/WX    TMP DP  RH WIND       PRES   REMARKS
STAMPEDE PASS  NOT AVBL
TROUTDALE, OR  LGT RAIN  47  43  86 E16       29.80F
THE DALLES, OR CLOUDY    50  43  77 NE10      29.84F
$$

WAZ026-027-041>044-520-521-262200-
EAST SLOPES

CITY           SKY/WX    TMP DP  RH WIND       PRES   REMARKS
OMAK           LGT RAIN  42  34  73 MISG      29.89F
WENATCHEE      CLOUDY    41  35  79 S5        29.85F
ELLENSBURG     CLOUDY    44  37  76 E6        29.83F
YAKIMA         LGT RAIN  48  40  73 E3        29.85F
SUNNYSIDE ARPT   N/A     47  40  77 E9        29.86S
$$

WAZ028-034-035-262200-
COLUMBIA BASIN

CITY           SKY/WX    TMP DP  RH WIND       PRES   REMARKS
EPHRATA        LGT RAIN  44  36  73 NE6       29.86F
MOSES LAKE     LGT RAIN  45  36  70 CALM      29.88F
PASCO          LGT RAIN  48  42  80 NE6       29.88F
HERMISTON, OR  CLOUDY    47  43  86 E7        29.86F
$$

WAZ036>038-262200-
NORTHEAST WASHINGTON

CITY           SKY/WX    TMP DP  RH WIND       PRES   REMARKS
SPOKANE GEIGER CLOUDY    49  34  56 E5        29.83F
SPOKANE FELTS  CLOUDY    52  36  54 E8        29.83F
FAIRCHILD AFB  CLOUDY    47  36  63 NE5       29.83F
COEURDALENE,ID CLOUDY    51  34  52 N9        29.84F
DEER PARK      CLOUDY    49  32  52 N8        29.85S
$$

WAZ029>033-262200-
SOUTHEAST WASHINGTON

CITY           SKY/WX    TMP DP  RH WIND       PRES   REMARKS
PULLMAN        LGT RAIN  49  37  63 CALM      29.85F
LEWISTON, ID   CLOUDY    51  40  65 W8        29.85S
WALLA WALLA    CLOUDY    48  40  73 E6        29.88F
PENDLETON, OR  LGT RAIN  45  40  82 E8        29.86F
$$



USA.gov is the U.S. government's official web portal to all federal, state and local government web resources and services.